FENGYUN 2H

Last updated on Thu Oct 30 2025 00:02:23 GMT+0000 (Coordinated Universal Time)

1 43491U 18050A 25302.48676446 -.00000117 00000+0 00000+0 0 9990 2 43491 2.4314 81.8184 0002444 144.5177 66.1028 1.00275309 27122
UTC large
Height (km)
Speed (km/s)
/
Latitude / Longitude
Inclination (degrees)
Orbital Period (minutes)
Azimuth
Elevation
Range (km)
Doppler Factor

Next 0 passes for location: London (51.5072 / 0.1276)

Sorry there are no passes over London.